• Processing (Info)

  • MPEC 2023-N74 : 2023 NN1

    The following Minor Planet Electronic Circular may be linked-to from your own Web pages, but must not otherwise be redistributed electronically.

    A form allowing access to any MPEC is at the bottom of this page.


    Read MPEC 2023-N73 Read MPEC 2023-N75


    M.P.E.C. 2023-N74                                 Issued 2023 July 15, 01:49 UT
    
         The Minor Planet Electronic Circulars contain information on unusual
             minor planets, routine data on comets and natural satellites,
             and occasional editorial announcements.  They are published
        on behalf of Division F of the International Astronomical Union by the
              Minor Planet Center, Smithsonian Astrophysical Observatory,
                              Cambridge, MA 02138, U.S.A.
    			  
                 Prepared using the Tamkin Foundation Computer Network
    
                                  MPC@CFA.HARVARD.EDU
                URL https://www.minorplanetcenter.net/    ISSN 1523-6714
    
                                    2023 NN1                                 
    
    
    Observations:
         K23N01N* C2023 07 12.43053919 35 03.140-15 31 47.54         19.4 GVEN074U68
         K23N01N  C2023 07 12.43388119 35 06.015-15 30 17.09         19.4 GVEN074U68
         K23N01N  C2023 07 12.45148619 35 21.197-15 22 20.00         19.2 GVEN074U68
         K23N01N  C2023 07 12.45482819 35 24.147-15 20 49.07         19.2 GVEN074U68
         K23N01N  C2023 07 14.40771020 02 33.369-02 44 31.59         19.8 GVEN074U68
         K23N01N  C2023 07 14.41105120 02 35.238-02 43 25.63         19.8 GVEN074U68
         K23N01N  C2023 07 14.42889820 02 45.044-02 37 33.03         19.7 GVEN074U68
         K23N01N  C2023 07 14.43223920 02 46.897-02 36 27.53         19.7 GVEN074U68
         K23N01N KC2023 07 14.93788220 08 33.26 +00 01 41.6                VEN074104
         K23N01N KC2023 07 14.94520820 08 36.96 +00 03 53.1          19.5 GVEN074104
         K23N01N KC2023 07 14.95254620 08 40.68 +00 06 04.9                VEN074104
         K23N01N KC2023 07 14.96720520 08 48.02 +00 10 27.8                VEN074104
         K23N01N IC2023 07 14.99102520 08 58.78 +00 17 28.1          19.9 GVEN074L01
         K23N01N IC2023 07 14.99251120 08 59.49 +00 17 53.9          19.5 GVEN074L01
         K23N01N KC2023 07 14.99399720 09 00.22 +00 18 20.6          19.7 GVEN074L01
         K23N01N IC2023 07 14.99548320 09 00.98 +00 18 47.6          19.6 GVEN074L01
         K23N01N IC2023 07 14.99696820 09 01.71 +00 19 13.5          19.7 GVEN074L01
    
    Observer details:
    104 San Marcello Pistoiese.  Observers P. Bacci, M. Maestripieri.  Measurer P.
        Bacci.  0.60-m f/4.0 reflector + CCD.
    L01 Visnjan Observatory, Tican.  Observer K. Korlevic.  1.0-m f/2.9 reflector
        + CCD.
    U68 JPL SynTrack Robotic Telescope, Auberry.  Observers N. Saini, C. Zhai, R.
        Trahan, M. Zhan, M. Shao.  0.28-m Reflector + CCD.
    
    Orbital elements:
    2023 NN1                                                 Earth MOID = 0.0156 AU
    Epoch 2023 Feb. 25.0 TT = JDT 2460000.5                 Veres                   
    M 280.23178              (2000.0)            P               Q                  
    n   0.64351817     Peri.  346.74307     +0.09768791     +0.98928144             
    a   1.3287058      Node   288.78058     -0.90231844     +0.04203398             
    e   0.2259083      Incl.    6.58263     -0.41985535     +0.13984055             
    P   1.53           H   27.37          G   0.15           U   8                  
    Residuals in seconds of arc
    230712 U68  0.0   0.2-    230714 U68  0.1-  0.2-    230714 L01  0.2+  0.5+
    230712 U68  0.1+  0.3-    230714 U68  0.1-  0.7-    230714 L01  0.2-  0.2-
    230712 U68  0.4-  0.1+    230714 104  0.3-  0.4+    230714 L01  0.3-  0.1-
    230712 U68  0.3+  0.5+    230714 104  0.3-  0.1+    230714 L01  0.0   0.5+
    230714 U68  0.0   0.4+    230714 104  0.2+  0.0     230714 L01  0.1-  0.1-
    230714 U68  0.5+  0.1+    230714 104  0.6+  0.1-
    
    Ephemeris:
    2023 NN1                 a,e,i = 1.33, 0.23, 7                   q = 1.0285
    Date    TT    R. A. (2000) Decl.     Delta      r    Elong.  Phase     V
    2023 06 15    11 00 25.1 -52 12 57   0.07020 1.0346   103.7    72.5    24.2
    ...
    2023 06 30    12 39 15.6 -60 30 18   0.03237 1.0285   110.8    67.5    22.4
    ...
    2023 07 08    17 34 17.2 -50 06 16   0.01707 1.0310   147.1    32.4    20.0
    ...
    2023 07 14    19 57 50.4 -04 59 10   0.01987 1.0355   162.0    17.7    19.9
    2023 07 15    20 09 04.1 +00 24 39   0.02166 1.0364   156.4    23.1    20.2
    2023 07 16    20 18 27.5 +04 55 17   0.02367 1.0374   151.9    27.5    20.5
    ...
    2023 07 22    20 52 14.3 +20 05 08   0.03814 1.0446   137.7    40.9    22.0
    ...
    2023 07 30    21 11 14.2 +26 59 09   0.05987 1.0574   133.5    44.2    23.1
    ...
    2023 08 14    21 23 51.0 +29 15 31   0.1030  1.0898   136.1    40.1    24.2
    
    M. P. C. Staff               (C) Copyright 2023 MPC           M.P.E.C. 2023-N74
    


    Read MPEC 2023-N73 Read MPEC 2023-N75


    MPEC number:

    Enter an MPEC number in one of the following forms:

    • 1997-B01 (the full form)
    • J97B01 (the packed version of the full form)
    • B01 (the abbreviated form)